GW2473 Weather Reports


time (UTC)temp
C
wind
direction
speed
KPH
gust
KPH
rain 1hr
cm
rain 24hr
cm
rain mn
cm
humidity
%
barometer
mb
20260510045018 6 179 1.6 4.8 0.00 1.02 0.00 91 1011.1
20260510044537 6 207 1.6 3.2 0.00 1.02 0.00 91 1011.0
20260510044017 7 0 0.0 3.2 0.00 1.02 0.00 91 1010.8
20260510043516 7 0 0.0 0.0 0.00 1.02 0.00 92 1010.5
20260510043035 7 0 0.0 3.2 0.00 1.02 0.00 91 1010.3
20260510042516 6 0 0.0 4.8 0.00 1.02 0.00 91 1010.2
20260510042015 6 0 0.0 4.8 0.00 1.02 0.00 91 1010.1
20260510041534 6 189 1.6 4.8 0.00 1.02 0.00 91 1010.1
20260510041015 6 0 0.0 0.0 0.00 1.02 0.00 91 1010.2
20260510040518 6 0 0.0 3.2 0.00 1.02 0.00 91 1010.2
20260510040035 6 0 0.0 4.8 0.00 1.02 0.00 91 1010.1
20260510035516 7 195 1.6 4.8 0.00 1.02 1.02 91 1010.2
20260510035016 7 194 0.0 3.2 0.00 1.02 1.02 91 1010.1
20260510034535 7 0 0.0 1.6 0.00 1.02 1.02 91 1010.1
20260510034017 7 0 0.0 4.8 0.00 1.02 1.02 91 1010.1
20260510033516 7 192 0.0 4.8 0.00 1.02 1.02 91 1010.2
20260510033034 7 191 3.2 4.8 0.00 1.02 1.02 91 1010.2
20260510032517 7 191 1.6 3.2 0.00 1.02 1.02 91 1010.3
20260510032017 7 191 0.0 3.2 0.00 1.02 1.02 91 1010.2
20260510031544 7 191 1.6 4.8 0.00 1.02 1.02 91 1010.1
20260510031014 7 191 1.6 4.8 0.00 1.02 1.02 91 1010.2
20260510030517 7 191 1.6 4.8 0.00 1.02 1.02 91 1010.2
20260510030035 7 190 3.2 4.8 0.00 1.02 1.02 91 1010.1
20260510025515 8 192 0.0 3.2 0.00 1.02 1.02 91 1010.2
20260510025018 8 0 0.0 0.0 0.00 1.02 1.02 91 1010.1
20260510024543 8 0 0.0 1.6 0.00 1.02 1.02 91 1010.1
20260510024017 8 0 0.0 6.4 0.00 1.02 1.02 91 1010.0
20260510023517 8 0 0.0 6.4 0.00 1.02 1.02 91 1010.1
20260510023030 7 0 1.6 6.4 0.00 1.02 1.02 91 1010.2
20260510022519 7 186 1.6 4.8 0.00 1.02 1.02 90 1010.2
20260510022015 7 199 1.6 4.8 0.00 1.02 1.02 90 1010.3
20260510021531 7 183 1.6 4.8 0.00 1.02 1.02 90 1010.2
20260510021016 8 188 1.6 4.8 0.00 1.02 1.02 90 1010.2
20260510020515 8 188 1.6 3.2 0.00 1.02 1.02 90 1010.4
20260510020030 8 199 0.0 3.2 0.00 1.02 1.02 90 1010.3
20260510015515 8 199 0.0 3.2 0.00 1.02 1.02 90 1010.3
20260510015014 8 0 0.0 3.2 0.00 1.02 1.02 90 1010.1
20260510014534 8 0 0.0 3.2 0.00 1.02 1.02 90 1010.1
20260510014014 8 0 0.0 0.0 0.00 1.02 1.02 90 1010.0
20260510013517 8 0 0.0 3.2 0.00 1.02 1.02 90 1010.2
20260510013036 8 0 0.0 3.2 0.00 1.02 1.02 89 1010.1
20260510012514 8 0 0.0 3.2 0.00 1.02 1.02 90 1010.2
20260510012016 8 198 1.6 4.8 0.00 1.02 1.02 89 1010.2
20260510011543 8 172 1.6 4.8 0.00 1.02 1.02 89 1010.0
20260510011017 8 214 1.6 4.8 0.00 1.02 1.02 89 1009.9
20260510010515 9 197 3.2 4.8 0.00 1.02 1.02 89 1009.7
20260510010035 9 191 1.6 6.4 0.00 1.02 1.02 88 1010.1
20260510005515 9 192 1.6 6.4 0.00 1.02 1.02 88 1010.0
20260510005016 9 192 4.8 6.4 0.00 1.02 1.02 88 1010.0
20260510004532 9 202 1.6 4.8 0.00 1.02 1.02 88 1010.0
20260510004017 10 199 1.6 8.0 0.00 1.02 1.02 88 1009.9
20260510003517 10 195 3.2 8.0 0.00 1.02 1.02 88 1009.8
20260510003055 10 178 3.2 6.4 0.00 1.02 1.02 87 1009.8
20260510002520 10 185 1.6 4.8 0.00 1.02 1.02 87 1009.7
20260510002014 10 185 1.6 4.8 0.00 1.02 1.02 86 1009.6
20260510001539 11 188 1.6 4.8 0.00 1.02 1.02 85 1009.4
20260510001016 11 188 1.6 4.8 0.00 1.02 1.02 84 1009.3
20260510000515 11 205 3.2 4.8 0.00 1.02 1.02 83 1009.3
20260510000040 12 198 1.6 8.0 0.00 1.02 1.02 82 1009.1
20260509235518 12 212 3.2 8.0 0.00 1.02 1.02 80 1009.1
20260509235017 12 210 1.6 6.4 0.00 1.02 1.02 79 1009.1
20260509234543 12 217 1.6 8.0 0.00 1.02 1.02 79 1009.2
20260509234018 13 219 0.0 8.0 0.00 1.02 1.02 79 1009.2
20260509233516 13 257 0.0 8.0 0.00 1.02 1.02 79 1009.1
20260509233031 13 0 0.0 6.4 0.00 1.02 1.02 79 1009.0
20260509232515 13 22 0.0 8.0 0.00 1.02 1.02 78 1008.8
20260509232017 13 258 1.6 12.9 0.00 1.02 1.02 78 1008.8
20260509231540 13 0 1.6 12.9 0.00 1.02 1.02 78 1008.6
20260509231017 13 177 1.6 8.0 0.00 1.02 1.02 79 1008.4
20260509230516 13 0 1.6 8.0 0.00 1.02 1.02 79 1008.6
20260509230034 13 202 1.6 9.7 0.00 1.02 1.02 80 1008.6
20260509225514 13 199 3.2 9.7 0.00 1.02 1.02 79 1008.7
20260509225014 13 229 0.0 9.7 0.00 1.02 1.02 80 1008.8
20260509224534 13 186 3.2 9.7 0.00 1.02 1.02 81 1008.8
20260509224017 13 221 3.2 9.7 0.00 1.02 1.02 81 1008.8
20260509223517 12 192 0.0 9.7 0.00 1.02 1.02 82 1008.9
20260509223031 12 292 3.2 9.7 0.00 1.02 1.02 81 1008.9
20260509222518 12 194 1.6 6.4 0.00 1.02 1.02 81 1008.9
20260509222016 12 89 1.6 6.4 0.00 1.02 1.02 82 1009.0
20260509221535 12 0 0.0 3.2 0.00 1.02 1.02 82 1009.0
20260509221015 12 0 0.0 11.3 0.00 1.02 1.02 83 1009.0
20260509220514 12 0 3.2 11.3 0.00 1.02 1.02 83 1009.2
20260509220036 12 304 3.2 14.5 0.00 1.02 1.02 83 1009.3
20260509215517 12 173 1.6 14.5 0.00 1.02 1.02 83 1009.4
20260509215017 12 325 3.2 14.5 0.00 1.02 1.02 83 1009.4
20260509214532 12 302 3.2 14.5 0.00 1.02 1.02 83 1009.4
20260509214018 12 330 4.8 16.1 0.00 1.02 1.02 83 1009.5
20260509213518 12 49 8.0 16.1 0.00 1.02 1.02 83 1009.5
20260509213032 12 13 4.8 12.9 0.00 1.02 1.02 84 1009.5
20260509212518 12 281 3.2 16.1 0.00 1.02 1.02 84 1009.6
20260509212017 12 332 6.4 16.1 0.00 1.02 1.02 84 1009.6
20260509211538 11 0 4.8 12.9 0.00 1.02 1.02 84 1009.6
20260509211014 11 316 4.8 12.9 0.03 1.02 1.02 85 1009.5
20260509210515 11 302 3.2 11.3 0.05 1.02 1.02 85 1009.4
20260509210032 11 305 1.6 6.4 0.05 1.02 1.02 86 1009.4
20260509205514 11 275 0.0 9.7 0.05 1.02 1.02 86 1009.3
20260509205018 11 0 3.2 9.7 0.08 1.02 1.02 86 1009.4
20260509204534 11 264 3.2 8.0 0.08 1.02 1.02 87 1009.4
20260509204018 11 162 1.6 8.0 0.08 1.02 1.02 87 1009.5
20260509203514 10 0 1.6 8.0 0.08 1.02 1.02 87 1009.7
20260509203036 10 151 1.6 11.3 0.10 1.02 1.02 87 1009.8
20260509202515 10 143 3.2 11.3 0.10 1.02 1.02 87 1009.8
20260509202016 10 301 0.0 9.7 0.13 1.02 1.02 87 1010.0
20260509201530 10 336 1.6 11.3 0.15 1.02 1.02 87 1009.9
20260509201014 10 302 3.2 12.9 0.15 0.99 0.99 86 1009.9
20260509200515 10 306 4.8 12.9 0.18 0.97 0.97 87 1010.0
20260509200030 10 0 1.6 12.9 0.20 0.97 0.97 87 1009.9
20260509195518 10 171 3.2 12.9 0.20 0.94 0.94 87 1009.9
20260509195016 10 261 1.6 19.3 0.23 0.94 0.94 87 1010.0
20260509194536 10 253 4.8 19.3 0.25 0.94 0.94 87 1010.0
20260509194016 10 0 3.2 16.1 0.28 0.94 0.94 87 1010.1
20260509193515 10 163 4.8 16.1 0.30 0.94 0.94 86 1010.2
20260509193034 10 126 1.6 16.1 0.30 0.91 0.91 86 1010.2
20260509192518 10 239 4.8 12.9 0.33 0.91 0.91 86 1010.1
20260509192017 10 250 3.2 12.9 0.33 0.89 0.89 86 1010.1
20260509191532 10 163 3.2 12.9 0.30 0.86 0.86 86 1010.3
20260509191017 10 277 1.6 11.3 0.28 0.81 0.81 86 1010.3
20260509190514 10 203 3.2 11.3 0.25 0.79 0.79 86 1010.6
20260509190041 10 182 3.2 11.3 0.25 0.76 0.76 87 1010.6
20260509185515 10 0 3.2 12.9 0.23 0.74 0.74 87 1010.8
20260509185015 10 223 4.8 12.9 0.23 0.71 0.71 86 1011.0
20260509184536 10 209 3.2 12.9 0.20 0.69 0.69 86 1010.8
20260509184014 10 332 4.8 16.1 0.18 0.66 0.66 86 1010.8
20260509183514 10 320 3.2 16.1 0.15 0.64 0.64 86 1010.7
20260509183042 10 208 1.6 11.3 0.13 0.61 0.61 86 1010.8
20260509182518 10 0 4.8 11.3 0.10 0.58 0.58 86 1010.6
20260509182015 11 222 1.6 14.5 0.08 0.56 0.56 86 1010.6
20260509181543 11 211 3.2 17.7 0.08 0.56 0.56 86 1010.8
20260509181015 11 163 3.2 17.7 0.05 0.53 0.53 86 1010.7
20260509180518 11 222 3.2 14.5 0.03 0.51 0.51 86 1010.8
20260509180032 11 0 3.2 19.3 0.05 0.51 0.51 86 1010.7
20260509175515 11 208 6.4 19.3 0.05 0.66 0.51 86 1010.8
20260509175015 11 217 3.2 11.3 0.03 0.64 0.48 86 1010.8
20260509174535 11 242 1.6 11.3 0.03 0.64 0.48 86 1010.7
20260509174015 11 156 3.2 11.3 0.03 0.64 0.48 86 1010.7
20260509173514 11 0 4.8 16.1 0.05 0.64 0.48 86 1010.6
20260509173035 11 261 3.2 16.1 0.05 0.64 0.48 86 1010.6
20260509172514 11 209 3.2 16.1 0.05 0.64 0.48 86 1010.6
20260509172017 11 235 4.8 16.1 0.05 0.64 0.48 86 1010.6
20260509171535 11 271 1.6 9.7 0.05 0.64 0.48 86 1010.6
20260509171015 11 232 1.6 14.5 0.05 0.64 0.48 86 1010.7
20260509170515 11 246 4.8 14.5 0.05 0.64 0.48 86 1010.6
20260509170035 11 254 4.8 14.5 0.03 0.61 0.46 87 1010.6
20260509165515 11 0 4.8 14.5 0.03 0.61 0.46 86 1010.4
20260509165016 11 218 4.8 14.5 0.03 0.61 0.46 86 1010.4
20260509164532 11 244 4.8 19.3 0.03 0.61 0.46 86 1010.5
20260509164014 11 195 6.4 19.3 0.03 0.61 0.46 86 1010.6
20260509163518 11 221 6.4 17.7 0.00 0.58 0.43 86 1010.6
20260509163034 11 227 4.8 19.3 0.00 0.58 0.43 87 1010.6
20260509162515 10 214 6.4 19.3 0.00 0.58 0.43 87 1010.7
20260509162018 10 196 3.2 14.5 0.00 0.58 0.43 87 1010.6
20260509161534 10 0 0.0 6.4 0.03 0.58 0.43 87 1010.6
20260509161014 10 196 3.2 9.7 0.03 0.58 0.43 87 1010.7
20260509160518 10 0 3.2 9.7 0.03 0.58 0.43 87 1010.7
20260509160030 10 231 3.2 11.3 0.03 0.58 0.43 87 1010.7
20260509155514 10 185 3.2 11.3 0.03 0.58 0.43 87 1010.8
20260509155014 10 171 4.8 12.9 0.05 0.58 0.43 87 1010.8
20260509154534 10 199 6.4 12.9 0.05 0.58 0.43 87 1010.8
20260509154015 10 180 4.8 11.3 0.05 0.58 0.43 87 1010.8
20260509153517 10 0 1.6 9.7 0.05 0.58 0.43 88 1010.8
20260509153030 10 205 3.2 12.9 0.05 0.58 0.43 87 1010.9
20260509152516 10 167 3.2 12.9 0.08 0.58 0.43 88 1010.9
20260509152016 10 196 3.2 12.9 0.08 0.58 0.43 88 1011.1
20260509151532 10 202 3.2 8.0 0.05 0.56 0.41 88 1011.3
20260509151014 10 0 1.6 8.0 0.05 0.56 0.41 88 1011.4
20260509150514 10 217 1.6 8.0 0.08 0.56 0.41 88 1011.4
20260509150033 10 271 0.0 4.8 0.08 0.56 0.41 89 1011.5
20260509145517 10 0 0.0 0.0 0.08 0.56 0.41 89 1011.4
20260509145015 10 0 0.0 0.0 0.05 0.53 0.38 89 1011.4
20260509144540 9 0 0.0 0.0 0.05 0.53 0.38 89 1011.4
20260509144015 9 0 0.0 0.0 0.08 0.53 0.38 89 1011.4
20260509143516 9 0 0.0 0.0 0.08 0.53 0.38 90 1011.3
20260509143030 9 0 0.0 0.0 0.08 0.53 0.38 89 1011.3
20260509142514 9 0 0.0 0.0 0.05 0.51 0.36 89 1011.2
20260509142014 9 0 0.0 0.0 0.05 0.51 0.36 88 1011.2
20260509141535 9 0 0.0 0.0 0.05 0.51 0.36 87 1011.2
20260509141020 9 0 0.0 0.0 0.08 0.51 0.36 88 1011.2
20260509140515 9 0 0.0 0.0 0.05 0.48 0.33 88 1011.2
20260509140033 9 0 0.0 3.2 0.05 0.48 0.33 88 1011.3
20260509135516 9 0 0.0 6.4 0.08 0.48 0.33 88 1011.1
20260509135015 9 162 3.2 6.4 0.08 0.48 0.33 87 1011.1
20260509134532 9 0 0.0 6.4 0.08 0.48 0.33 88 1011.2
20260509134015 9 0 0.0 8.0 0.08 0.46 0.30 87 1011.1
20260509133515 9 0 0.0 11.3 0.08 0.46 0.30 87 1011.1
20260509133030 9 176 3.2 14.5 0.10 0.46 0.30 87 1011.2
20260509132517 9 184 6.4 19.3 0.10 0.46 0.30 87 1011.0
20260509132016 9 213 6.4 19.3 0.10 0.46 0.30 87 1011.1
20260509131529 9 190 6.4 16.1 0.10 0.46 0.30 88 1011.1
20260509131015 9 194 6.4 16.1 0.10 0.43 0.28 88 1011.2
20260509130517 9 178 3.2 11.3 0.10 0.43 0.28 88 1011.1
20260509130031 8 185 4.8 11.3 0.10 0.43 0.28 89 1011.1
20260509125516 8 201 4.8 14.5 0.08 0.41 0.25 89 1011.1
20260509125016 8 182 6.4 14.5 0.08 0.41 0.25 89 1011.1
20260509124532 8 198 3.2 11.3 0.08 0.41 0.25 90 1011.2
20260509124017 8 178 4.8 11.3 0.05 0.38 0.23 90 1011.2
20260509123515 8 192 1.6 6.4 0.05 0.38 0.23 90 1011.3
20260509123030 8 0 0.0 6.4 0.05 0.36 0.20 91 1011.3
20260509122515 8 284 1.6 8.0 0.05 0.36 0.20 91 1011.4
20260509122015 8 230 1.6 14.5 0.05 0.36 0.20 91 1011.3
20260509121536 8 102 4.8 14.5 0.05 0.36 0.20 91 1011.4
20260509121015 8 298 0.0 0.0 0.03 0.33 0.18 91 1011.2
20260509120515 8 0 0.0 0.0 0.03 0.33 0.18 91 1011.2
20260509120030 8 0 0.0 4.8 0.03 0.33 0.18 91 1011.5
20260509115515 8 0 0.0 4.8 0.03 0.33 0.18 91 1011.5
20260509115016 8 143 0.0 4.8 0.03 0.33 0.18 91 1011.3
20260509114529 8 0 0.0 3.2 0.03 0.33 0.18 91 1011.5
20260509114014 8 0 0.0 4.8 0.03 0.33 0.18 91 1011.5
20260509113516 8 0 0.0 4.8 0.03 0.33 0.18 91 1011.3
20260509113033 8 313 1.6 4.8 0.00 0.30 0.15 91 1011.4
20260509112516 8 212 0.0 4.8 0.03 0.30 0.15 92 1011.2
20260509112015 8 313 1.6 4.8 0.03 0.30 0.15 92 1011.4
20260509111531 8 0 0.0 0.0 0.03 0.30 0.15 91 1011.4
20260509111016 8 0 0.0 0.0 0.03 0.30 0.15 92 1011.4
20260509110515 8 0 0.0 1.6 0.03 0.30 0.15 91 1011.5
20260509110034 8 0 0.0 1.6 0.03 0.30 0.15 92 1011.5
20260509105513 8 0 0.0 3.2 0.03 0.30 0.15 91 1011.5
20260509105019 8 0 0.0 3.2 0.03 0.30 0.15 91 1011.6
20260509104537 8 0 0.0 3.2 0.03 0.30 0.15 91 1011.6
20260509104014 7 0 0.0 3.2 0.03 0.30 0.15 91 1011.6
20260509103513 7 0 0.0 3.2 0.03 0.30 0.15 91 1011.6
20260509103029 7 0 0.0 0.0 0.03 0.30 0.15 91 1011.6
20260509102514 7 0 0.0 0.0 0.00 0.28 0.13 91 1011.4
20260509102016 7 0 0.0 0.0 0.00 0.28 0.13 91 1011.4
20260509101534 7 0 0.0 1.6 0.00 0.28 0.13 91 1011.5
20260509101019 7 0 0.0 1.6 0.00 0.28 0.13 91 1011.4
20260509100512 7 0 0.0 1.6 0.00 0.28 0.13 91 1011.4
20260509100031 7 0 0.0 0.0 0.00 0.28 0.13 91 1011.2
20260509095514 7 0 0.0 0.0 0.00 0.28 0.13 91 1011.3
20260509095013 7 0 0.0 0.0 0.00 0.28 0.13 91 1011.3
20260509094532 7 0 0.0 0.0 0.00 0.28 0.13 91 1011.4
20260509094014 7 0 0.0 1.6 0.00 0.28 0.13 91 1011.5
20260509093520 7 0 0.0 3.2 0.00 0.28 0.13 91 1011.5
20260509093043 7 0 0.0 3.2 0.00 0.28 0.13 91 1011.6
20260509092513 7 0 0.0 0.0 0.00 0.28 0.13 91 1011.7
20260509092016 7 0 0.0 0.0 0.00 0.28 0.13 91 1011.7
20260509091530 7 0 0.0 0.0 0.00 0.28 0.13 91 1011.8
20260509091017 7 0 0.0 0.0 0.00 0.28 0.13 91 1011.9
20260509090514 7 0 0.0 0.0 0.00 0.28 0.13 90 1011.9
20260509090032 7 0 0.0 0.0 0.00 0.28 0.13 90 1012.0
20260509085517 7 0 0.0 0.0 0.00 0.28 0.13 90 1012.0
20260509085014 7 0 0.0 0.0 0.00 0.28 0.13 90 1012.1
20260509084543 7 0 0.0 3.2 0.00 0.28 0.13 90 1012.0
20260509084014 7 0 0.0 3.2 0.00 0.28 0.13 90 1011.9
20260509083515 7 154 0.0 0.0 0.00 0.28 0.13 90 1012.0
20260509083030 7 0 0.0 0.0 0.00 0.28 0.13 90 1012.1
20260509082515 7 0 0.0 1.6 0.00 0.28 0.13 90 1012.0
20260509082015 7 0 0.0 1.6 0.00 0.28 0.13 90 1011.8
20260509081538 7 0 0.0 0.0 0.00 0.28 0.13 90 1012.0
20260509081016 7 0 0.0 0.0 0.00 0.28 0.13 90 1012.0
20260509080515 7 0 0.0 1.6 0.00 0.28 0.13 90 1012.1
20260509080041 7 0 0.0 1.6 0.00 0.28 0.13 90 1012.1
20260509075517 7 182 0.0 4.8 0.00 0.28 0.13 90 1012.2
20260509075014 7 182 0.0 6.4 0.00 0.28 0.13 90 1012.2
20260509074528 7 209 0.0 8.0 0.00 0.28 0.13 89 1012.3
20260509074017 8 207 3.2 8.0 0.00 0.28 0.13 90 1012.1
20260509073515 7 196 0.0 4.8 0.00 0.28 0.13 89 1011.8
20260509073037 8 0 1.6 4.8 0.03 0.28 0.13 89 1011.6
20260509072514 8 0 0.0 0.0 0.03 0.28 0.13 89 1011.6
20260509072013 8 0 0.0 0.0 0.05 0.28 0.13 89 1011.6
20260509071531 8 0 0.0 0.0 0.08 0.28 0.13 89 1011.7
20260509071014 8 0 0.0 0.0 0.08 0.28 0.13 89 1011.9
20260509070516 8 0 0.0 0.0 0.10 0.28 0.13 88 1011.8
20260509070030 8 0 0.0 0.0 0.10 0.28 0.13 88 1012.0
20260509065514 8 0 0.0 0.0 0.13 0.28 0.13 88 1012.1
20260509065014 8 0 0.0 0.0 0.13 0.28 0.13 88 1012.3
20260509064533 8 0 0.0 0.0 0.13 0.28 0.13 87 1012.3
20260509064016 8 0 0.0 0.0 0.13 0.28 0.13 87 1012.4
20260509063514 8 0 0.0 3.2 0.13 0.28 0.13 87 1012.4
20260509063034 8 0 0.0 4.8 0.10 0.25 0.10 86 1012.4
20260509062516 8 325 0.0 9.7 0.10 0.25 0.10 86 1012.5
20260509062017 8 0 3.2 11.3 0.08 0.23 0.08 85 1012.5
20260509061528 8 210 3.2 11.3 0.05 0.20 0.05 85 1012.7
20260509061018 8 243 3.2 16.1 0.05 0.20 0.05 85 1012.7
20260509060515 8 236 3.2 16.1 0.03 0.18 0.03 86 1012.5
20260509060030 8 188 6.4 14.5 0.03 0.18 0.03 86 1012.5
20260509055515 8 194 4.8 11.3 0.00 0.18 0.00 87 1012.3
20260509055014 7 190 0.0 8.0 0.00 0.18 0.00 88 1012.5
20260509054535 7 216 1.6 4.8 0.00 0.18 0.00 88 1012.1
20260509054015 7 0 0.0 4.8 0.00 0.18 0.00 87 1012.1
20260509053516 7 0 3.2 4.8 0.00 0.18 0.00 87 1012.3
20260509053037 7 210 3.2 4.8 0.00 0.18 0.00 87 1012.5
20260509052515 7 0 0.0 3.2 0.00 0.18 0.00 87 1012.5
20260509052015 7 0 0.0 3.2 0.00 0.18 0.00 87 1012.4
20260509051536 7 187 0.0 6.4 0.00 0.18 0.00 87 1012.2
20260509051015 7 0 0.0 6.4 0.00 0.18 0.00 86 1012.2
20260509050515 7 198 1.6 4.8 0.00 0.18 0.00 86 1012.2
20260509050035 7 214 0.0 4.8 0.00 0.18 0.00 86 1012.2
20260509045519 7 0 0.0 3.2 0.00 0.23 0.00 86 1012.1